Weather in Mezheninovka

Russia / Tomsk District     56°21′39″N   85°22′10″E
temp.,
°C
wind,
m/s
gust,
m/s
humid.,
%
clouds,
%
prec.,
mm/h
press.,
hPa
HPBL,
m
16 may, sun
sun1601:00+12ne2398100 5.0 101592
04:00+10ne2498100 0.0 101594
07:00+11e249363 0.0 1014187
10:00+16se2380100 0.0 1013608
13:00+16ene1385100 1.0 1010197
16:00+14n3795100 4.9 1009439
19:00+10ne489392 5.3 1011371
22:00+8ene2794100 0.0 1014362
17 may, mon
mon1701:00+7ne249492 0.0 1016253
04:00+6ne249293 0.0 1015157
07:00+6ene2384100 0.0 1017210
10:00+9ene1267100 0.0 1017507
13:00+12ne1159100 0.0 1017696
16:00+16nw134732 0.0 10151398
19:00+16n235077 0.0 1015980
22:00+11se2572100 0.0 1013102
18 may, tue
tue1801:00+12s31174100 0.0 1011316
04:00+12sw31097100 0.3 1009397
07:00+13sw4993100 1.1 1006576
10:00+14w3692100 0.9 1004542
13:00+19nw3570100 1.5 10041083
16:00+17wnw3678100 2.1 1003811
19:00+12nnw399490 4.7 1005694
22:00+10n259598 0.1 1006437
19 may, wed
wed1901:00+9nne1395100 0.1 1007292
04:00+8ene2695100 0.0 1006358
07:00+8ene4993100 0.0 1005586
10:00+6ne51192100 4.3 1005962
13:00+4ne61387100 9.7 1006984
16:00+6nne61369100 1.2 10061379
19:00+9nne61343100 1.2 10082204
22:00+5n512520 0.0 1010775
20 may, thu
thu2001:00+3nnw412600 0.0 1012529
04:000nw310695 0.0 1015360
07:00+1nnw49613 0.0 1016612
10:00+4nnw5837100 0.0 10172416
13:00+6nnw5734100 0.0 10172875
16:00+6nnw583991 0.0 10172248
19:00+7nnw41150100 0.1 10182050
22:00+4nnw116880 0.0 102022